Location: Eitze
(52.9840°N, 9.6894°E)
Time: 05:22:48
(UTC+00:00)

Cosmos 2333 Rocket - Pass Details

Date: 19 May 2025
Orbit: 840 x 862 km, 70.8° (Epoch: 14 June)

Event Time Altitude Azimuth Distance (km) Brightness Sun altitude
Rises 20:18:35 0° 323° (NW) 3,447 7.9 -7.4°
Reaches altitude 10° 20:21:46 10° 341° (NNW) 2,505 6.0 -7.7°
Maximum altitude 20:25:55 20° 27° (NNE) 1,894 4.3 -8.1°
Drops below altitude 10° 20:30:02 10° 73° (ENE) 2,488 4.4 -8.5°
Sets 20:33:11 0° 91° (E) 3,417 5.0 -8.8°
